Time,TemperatureF,DewpointF,PressureIn,WindDirection,WindDirectionDegrees,WindSpeedMPH,WindSpeedGustMPH,Humidity,HourlyPrecipIn,Conditions,Clouds,dailyrainin,SolarRadiationWatts/m^2,SoftwareType,DateUTC
2013-08-05 00:02:00,65.4,62.0,29.98,South,185,0.0,0.0,88,0.00,,,0.00,0,weatherlink.com 1.10,2013-08-05 04:02:00,
2013-08-05 00:17:00,64.8,62.0,29.99,South,185,0.0,0.0,89,0.00,,,0.00,0,weatherlink.com 1.10,2013-08-05 04:17:00,
2013-08-05 00:32:00,64.5,62.0,29.99,South,185,0.0,0.0,91,0.00,,,0.00,0,weatherlink.com 1.10,2013-08-05 04:32:00,
2013-08-05 00:47:00,63.7,61.0,29.99,South,185,0.0,0.0,91,0.00,,,0.00,0,weatherlink.com 1.10,2013-08-05 04:47:00,
2013-08-05 01:02:00,63.1,61.0,29.98,South,185,0.0,0.0,93,0.00,,,0.00,0,weatherlink.com 1.10,2013-08-05 05:02:00,
2013-08-05 01:17:00,62.6,61.0,29.98,South,185,0.0,0.0,94,0.00,,,0.00,0,weatherlink.com 1.10,2013-08-05 05:17:00,
2013-08-05 01:32:00,62.1,60.0,29.98,South,185,0.0,0.0,94,0.00,,,0.00,0,weatherlink.com 1.10,2013-08-05 05:32:00,
2013-08-05 01:47:00,61.6,60.0,29.98,South,185,0.0,0.0,95,0.00,,,0.00,0,weatherlink.com 1.10,2013-08-05 05:47:00,
2013-08-05 02:02:00,61.4,60.0,29.98,South,185,0.0,0.0,95,0.00,,,0.00,0,weatherlink.com 1.10,2013-08-05 06:02:00,
2013-08-05 02:17:00,61.4,60.0,29.98,South,185,0.0,0.0,95,0.00,,,0.00,0,weatherlink.com 1.10,2013-08-05 06:17:00,
2013-08-05 02:32:00,61.1,60.0,29.98,South,185,0.0,0.0,95,0.00,,,0.00,0,weatherlink.com 1.10,2013-08-05 06:32:00,
2013-08-05 02:47:00,60.9,60.0,29.97,South,185,0.0,0.0,96,0.00,,,0.00,0,weatherlink.com 1.10,2013-08-05 06:47:00,
2013-08-05 03:02:00,60.4,59.0,29.97,South,185,0.0,0.0,96,0.00,,,0.00,0,weatherlink.com 1.10,2013-08-05 07:02:00,
2013-08-05 03:17:00,60.1,59.0,29.97,South,185,0.0,0.0,96,0.00,,,0.00,0,weatherlink.com 1.10,2013-08-05 07:17:00,
2013-08-05 03:32:00,59.8,59.0,29.97,South,185,0.0,0.0,96,0.00,,,0.00,0,weatherlink.com 1.10,2013-08-05 07:32:00,
2013-08-05 03:47:00,59.5,59.0,29.96,South,185,0.0,0.0,97,0.00,,,0.00,0,weatherlink.com 1.10,2013-08-05 07:47:00,
2013-08-05 04:03:00,59.3,59.0,29.97,South,185,0.0,0.0,97,0.00,,,0.00,0,weatherlink.com 1.10,2013-08-05 08:03:00,
2013-08-05 04:18:00,59.0,58.0,29.97,South,185,0.0,0.0,97,0.00,,,0.00,0,weatherlink.com 1.10,2013-08-05 08:18:00,
2013-08-05 04:33:00,59.0,59.0,29.97,South,185,0.0,0.0,98,0.00,,,0.00,0,weatherlink.com 1.10,2013-08-05 08:33:00,
2013-08-05 04:47:00,59.0,59.0,29.97,South,185,0.0,0.0,98,0.00,,,0.00,0,weatherlink.com 1.10,2013-08-05 08:47:00,
2013-08-05 05:03:00,58.9,58.0,29.98,South,185,0.0,0.0,98,0.00,,,0.00,0,weatherlink.com 1.10,2013-08-05 09:03:00,
2013-08-05 05:18:00,58.8,58.0,29.97,South,185,0.0,0.0,98,0.00,,,0.00,0,weatherlink.com 1.10,2013-08-05 09:18:00,
2013-08-05 05:33:00,58.8,58.0,29.97,South,185,0.0,0.0,98,0.00,,,0.00,0,weatherlink.com 1.10,2013-08-05 09:33:00,
2013-08-05 05:48:00,58.9,58.0,29.97,South,185,0.0,0.0,98,0.00,,,0.00,0,weatherlink.com 1.10,2013-08-05 09:48:00,
2013-08-05 06:03:00,58.9,58.0,29.97,South,185,0.0,0.0,98,0.00,,,0.00,0,weatherlink.com 1.10,2013-08-05 10:03:00,
2013-08-05 06:18:00,58.9,58.0,29.97,South,185,0.0,0.0,98,0.00,,,0.00,0,weatherlink.com 1.10,2013-08-05 10:18:00,
2013-08-05 06:47:00,58.6,58.0,29.98,South,185,0.0,0.0,98,0.00,,,0.00,0,weatherlink.com 1.10,2013-08-05 10:47:00,
2013-08-05 07:02:00,58.4,58.0,29.98,South,185,0.0,0.0,98,0.00,,,0.00,5,weatherlink.com 1.10,2013-08-05 11:02:00,
2013-08-05 07:18:00,58.4,58.0,29.99,South,185,0.0,0.0,98,0.00,,,0.00,5,weatherlink.com 1.10,2013-08-05 11:18:00,
2013-08-05 07:33:00,58.4,58.0,30.00,South,185,0.0,0.0,98,0.00,,,0.00,9,weatherlink.com 1.10,2013-08-05 11:33:00,
2013-08-05 07:47:00,58.5,58.0,30.00,South,185,0.0,0.0,98,0.00,,,0.00,23,weatherlink.com 1.10,2013-08-05 11:47:00,
2013-08-05 08:18:00,58.9,58.0,30.00,South,185,0.0,0.0,98,0.00,,,0.00,25,weatherlink.com 1.10,2013-08-05 12:18:00,
2013-08-05 08:33:00,59.5,59.0,30.01,South,185,0.0,0.0,99,0.00,,,0.00,35,weatherlink.com 1.10,2013-08-05 12:33:00,
2013-08-05 08:48:00,60.0,60.0,30.01,South,185,0.0,0.0,99,0.00,,,0.00,25,weatherlink.com 1.10,2013-08-05 12:48:00,
2013-08-05 09:18:00,61.7,62.0,30.02,South,185,0.0,0.0,99,0.00,,,0.00,53,weatherlink.com 1.10,2013-08-05 13:18:00,
2013-08-05 09:33:00,62.6,62.0,30.01,South,185,0.0,0.0,99,0.00,,,0.00,100,weatherlink.com 1.10,2013-08-05 13:33:00,
2013-08-05 09:48:00,63.7,64.0,30.02,South,185,0.0,0.0,99,0.00,,,0.00,128,weatherlink.com 1.10,2013-08-05 13:48:00,
2013-08-05 10:03:00,64.8,65.0,30.01,South,185,0.0,0.0,99,0.00,,,0.00,67,weatherlink.com 1.10,2013-08-05 14:03:00,
2013-08-05 10:18:00,65.8,65.0,30.00,South,185,0.0,0.0,96,0.00,,,0.00,46,weatherlink.com 1.10,2013-08-05 14:18:00,
2013-08-05 10:33:00,66.9,66.0,30.00,South,185,0.0,1.0,96,0.00,,,0.00,46,weatherlink.com 1.10,2013-08-05 14:33:00,
2013-08-05 10:48:00,68.2,67.0,30.00,South,185,0.0,1.0,96,0.00,,,0.00,58,weatherlink.com 1.10,2013-08-05 14:48:00,
2013-08-05 11:03:00,69.4,68.0,30.00,South,185,0.0,0.0,95,0.00,,,0.00,54,weatherlink.com 1.10,2013-08-05 15:03:00,
2013-08-05 11:18:00,70.4,68.0,30.00,South,185,0.0,1.0,92,0.00,,,0.00,65,weatherlink.com 1.10,2013-08-05 15:18:00,
2013-08-05 11:48:00,73.7,69.0,29.98,NW,326,1.0,4.0,84,0.00,,,0.00,56,weatherlink.com 1.10,2013-08-05 15:48:00,
2013-08-05 12:03:00,75.0,69.0,29.98,NW,326,1.0,3.0,81,0.00,,,0.00,58,weatherlink.com 1.10,2013-08-05 16:03:00,
2013-08-05 12:18:00,76.1,70.0,29.97,NW,326,1.0,3.0,80,0.00,,,0.00,144,weatherlink.com 1.10,2013-08-05 16:18:00,
2013-08-05 12:34:00,76.2,69.0,29.97,NW,326,0.0,1.0,79,0.00,,,0.00,127,weatherlink.com 1.10,2013-08-05 16:34:00,
2013-08-05 12:48:00,76.0,70.0,29.96,NW,326,0.0,1.0,81,0.00,,,0.00,912,weatherlink.com 1.10,2013-08-05 16:48:00,
2013-08-05 13:03:00,77.6,70.0,29.96,NW,326,0.0,0.0,76,0.00,,,0.00,1014,weatherlink.com 1.10,2013-08-05 17:03:00,
2013-08-05 13:19:00,79.5,70.0,29.96,WNW,296,0.0,1.0,72,0.00,,,0.00,188,weatherlink.com 1.10,2013-08-05 17:19:00,
2013-08-05 13:34:00,79.1,70.0,29.95,WNW,296,0.0,2.0,74,0.00,,,0.00,250,weatherlink.com 1.10,2013-08-05 17:34:00,
2013-08-05 13:49:00,79.8,69.0,29.95,WNW,296,0.0,1.0,70,0.00,,,0.00,932,weatherlink.com 1.10,2013-08-05 17:49:00,
2013-08-05 14:04:00,80.9,66.0,29.95,WSW,242,0.0,3.0,61,0.00,,,0.00,956,weatherlink.com 1.10,2013-08-05 18:04:00,
2013-08-05 14:19:00,82.8,64.0,29.96,WNW,292,0.0,4.0,54,0.00,,,0.00,802,weatherlink.com 1.10,2013-08-05 18:19:00,
2013-08-05 14:34:00,83.5,64.0,29.95,WNW,292,0.0,3.0,52,0.00,,,0.00,960,weatherlink.com 1.10,2013-08-05 18:34:00,
2013-08-05 14:49:00,83.8,66.0,29.95,South,181,0.0,6.0,56,0.00,,,0.00,613,weatherlink.com 1.10,2013-08-05 18:49:00,
2013-08-05 15:04:00,83.2,68.0,29.94,SE,140,0.0,4.0,60,0.00,,,0.00,302,weatherlink.com 1.10,2013-08-05 19:04:00,
2013-08-05 15:34:00,82.6,64.0,29.94,WNW,300,2.0,4.0,53,0.00,,,0.00,631,weatherlink.com 1.10,2013-08-05 19:34:00,
2013-08-05 15:49:00,82.9,63.0,29.94,SW,233,0.0,4.0,52,0.00,,,0.00,380,weatherlink.com 1.10,2013-08-05 19:49:00,
2013-08-05 16:04:00,83.2,64.0,29.94,South,187,1.0,3.0,52,0.00,,,0.00,381,weatherlink.com 1.10,2013-08-05 20:04:00,
2013-08-05 16:19:00,82.6,68.0,29.94,South,187,0.0,1.0,62,0.00,,,0.00,176,weatherlink.com 1.10,2013-08-05 20:19:00,
2013-08-05 16:34:00,80.2,68.0,29.93,SE,140,0.0,4.0,66,0.00,,,0.00,176,weatherlink.com 1.10,2013-08-05 20:34:00,
2013-08-05 16:49:00,78.8,69.0,29.93,SE,140,1.0,2.0,72,0.00,,,0.00,264,weatherlink.com 1.10,2013-08-05 20:49:00,
2013-08-05 17:04:00,79.7,68.0,29.93,WSW,241,0.0,2.0,68,0.00,,,0.00,225,weatherlink.com 1.10,2013-08-05 21:04:00,
2013-08-05 17:19:00,80.0,69.0,29.93,South,176,2.0,3.0,68,0.00,,,0.00,148,weatherlink.com 1.10,2013-08-05 21:19:00,
2013-08-05 17:34:00,78.3,67.0,29.93,South,176,0.0,3.0,69,0.00,,,0.00,118,weatherlink.com 1.10,2013-08-05 21:34:00,
2013-08-05 17:49:00,77.9,68.0,29.93,South,175,0.0,3.0,71,0.00,,,0.00,158,weatherlink.com 1.10,2013-08-05 21:49:00,
2013-08-05 18:04:00,78.1,69.0,29.93,South,175,0.0,2.0,73,0.00,,,0.00,178,weatherlink.com 1.10,2013-08-05 22:04:00,
2013-08-05 18:19:00,79.3,66.0,29.93,WSW,255,0.0,2.0,64,0.00,,,0.00,434,weatherlink.com 1.10,2013-08-05 22:19:00,
2013-08-05 18:34:00,80.5,65.0,29.93,West,278,0.0,3.0,60,0.00,,,0.00,121,weatherlink.com 1.10,2013-08-05 22:34:00,
2013-08-05 18:49:00,80.1,66.0,29.92,West,278,0.0,1.0,63,0.00,,,0.00,79,weatherlink.com 1.10,2013-08-05 22:49:00,
2013-08-05 19:04:00,77.9,65.0,29.93,SSW,200,0.0,2.0,65,0.00,,,0.00,91,weatherlink.com 1.10,2013-08-05 23:04:00,
2013-08-05 19:19:00,77.0,65.0,29.93,SSW,211,1.0,3.0,67,0.00,,,0.00,42,weatherlink.com 1.10,2013-08-05 23:19:00,
2013-08-05 19:34:00,75.3,65.0,29.93,SSW,209,0.0,2.0,70,0.00,,,0.00,28,weatherlink.com 1.10,2013-08-05 23:34:00,
2013-08-05 19:49:00,74.4,64.0,29.93,SE,137,1.0,2.0,70,0.00,,,0.00,16,weatherlink.com 1.10,2013-08-05 23:49:00,
2013-08-05 20:03:00,74.0,63.0,29.93,SE,144,0.0,2.0,69,0.00,,,0.00,12,weatherlink.com 1.10,2013-08-06 00:03:00,
2013-08-05 20:19:00,73.3,62.0,29.93,SE,144,0.0,3.0,67,0.00,,,0.00,5,weatherlink.com 1.10,2013-08-06 00:19:00,
2013-08-05 20:34:00,73.3,64.0,29.93,SE,144,0.0,3.0,72,0.00,,,0.00,0,weatherlink.com 1.10,2013-08-06 00:34:00,
2013-08-05 21:04:00,72.8,63.0,29.94,SE,144,0.0,0.0,72,0.00,,,0.00,0,weatherlink.com 1.10,2013-08-06 01:04:00,
2013-08-05 21:19:00,71.7,64.0,29.94,SE,144,0.0,0.0,76,0.00,,,0.00,0,weatherlink.com 1.10,2013-08-06 01:19:00,
2013-08-05 21:34:00,70.7,63.0,29.94,SE,144,0.0,0.0,77,0.00,,,0.00,0,weatherlink.com 1.10,2013-08-06 01:34:00,
2013-08-05 21:49:00,70.0,62.0,29.93,SE,144,0.0,0.0,76,0.00,,,0.00,0,weatherlink.com 1.10,2013-08-06 01:49:00,
2013-08-05 22:34:00,68.4,63.0,29.94,SE,144,0.0,0.0,83,0.00,,,0.00,0,weatherlink.com 1.10,2013-08-06 02:34:00,
2013-08-05 23:04:00,67.9,63.0,29.94,SE,144,0.0,0.0,84,0.00,,,0.00,0,weatherlink.com 1.10,2013-08-06 03:04:00,
2013-08-05 23:19:00,67.5,63.0,29.94,SE,144,0.0,0.0,86,0.00,,,0.00,0,weatherlink.com 1.10,2013-08-06 03:19:00,
2013-08-05 23:34:00,66.8,63.0,29.94,SE,144,0.0,0.0,88,0.00,,,0.00,0,weatherlink.com 1.10,2013-08-06 03:34:00,